Regional Weather Roundup
Issued by NWS

Home | Current Version | Previous Version | Graphics & Text | Print | Product List | Glossary On
Versions: 1 2 3 4 5 6 7 8 9 10 11 12 13 14 15 16 17 18 19 20 21 22 23 24 25 26 27 28 29 30 31 32 33 34 35 36 37 38 39 40 41 42 43 44 45 46 47 48 49 50
000
ASUS44 KMEG 281010
RWRTN
TENNESSEE HOURLY STATE WEATHER ROUNDUP
NATIONAL WEATHER SERVICE MEMPHIS TN
500 AM CDT TUE JUL 28 2015

TNZ002-004-019-021-049-052-054-088>092-281100-
WEST TENNESSEE

CITY           SKY/WX    TMP DP  RH WIND       PRES   REMARKS
MEMPHIS INTL   CLEAR     82  75  79 SW6       29.94S
NWS MEMPHIS      N/A     78 N/A N/A MISG        N/A
JACKSON        CLEAR     76  73  91 CALM      29.96R FOG
DYERSBURG        N/A    N/A N/A N/A MISG        N/A
PARIS          CLEAR     72  70  94 CALM      29.97R
LEXINGTON      CLOUDY    73  73 100 CALM      29.96S VSB 1/4
$$

TNZ008-025-027-028-033-062-065-066-281100-
NORTH MIDDLE TENNESSEE

CITY           SKY/WX    TMP DP  RH WIND       PRES   REMARKS
NASHVILLE      MOCLDY    78  76  93 CALM      29.98R
CLARKSVILLE    MOCLDY    74  72  93 CALM      29.96S
SMYRNA         PTCLDY    76  75  96 CALM      29.98S
COOKEVILLE     CLEAR     73  73 100 CALM      29.99S
CROSSVILLE     MOCLDY    72  69  90 CALM      30.05S FOG
$$

TNZ061-075-076-078-094-096-097-281100-
SOUTH MIDDLE TENNESSEE

CITY           SKY/WX    TMP DP  RH WIND       PRES   REMARKS
FAYETTEVILLE   PTCLDY    75  72  88 CALM      30.00S
TULLAHOMA      CLEAR     73  72  94 CALM      30.01S
WINCHESTER     CLEAR     72  70  94 CALM      30.00S
MCMINNVILLE    CLEAR     73  73 100 CALM      30.00S
COLUMBIA       CLEAR     75  75 100 CALM      29.97R
SHELBYVILLE    CLEAR     73  73 100 CALM      30.00R
$$

TNZ017-018-042-046-047-281100-
NORTHEAST TENNESSEE

CITY           SKY/WX    TMP DP  RH WIND       PRES   REMARKS
TRI CITIES     MOCLDY    72  70  93 CALM      30.04S FOG
ELIZABETHTON   DRIZZLE   70  68  94 CALM      30.05S
$$

TNZ012-013-036-069-073-074-281100-
CENTRAL EAST TENNESSEE

CITY           SKY/WX    TMP DP  RH WIND       PRES   REMARKS
KNOXVILLE      MOCLDY    74  72  93 N3        30.00R
OAK RIDGE      PTCLDY    74  71  91 CALM      30.02R
GATLINBURG     SUNNY     73  70  88 CALM      30.00R
MORRISTOWN     MOSUNNY   72  72 100 CALM      30.04R
$$

TNZ083-085-099-281100-
SOUTHEAST TENNESSEE

CITY           SKY/WX    TMP DP  RH WIND       PRES   REMARKS
CHATTANOOGA    MOCLDY    77  74  90 CALM      29.99R
$$

SKY/WX REPORTED AS FAIR MEANS FEW OR NO CLOUDS BELOW
12 THOUSAND FEET.



USA.gov is the U.S. government's official web portal to all federal, state and local government web resources and services.